Time,TemperatureF,DewpointF,PressureIn,WindDirection,WindDirectionDegrees,WindSpeedMPH,WindSpeedGustMPH,Humidity,HourlyPrecipIn,Conditions,Clouds,dailyrainin,SoftwareType,DateUTC
2013-07-04 00:02:00,75.0,-99.9,30.14,ESE,121,6.0,8.0,-999,-99.99,,,-99.99,,2013-07-04 04:02:00,
2013-07-04 00:22:00,74.0,-99.9,30.14,ESE,113,7.0,11.0,-999,-99.99,,,-99.99,,2013-07-04 04:22:00,
2013-07-04 00:43:00,74.0,-99.9,30.13,ESE,123,6.0,9.0,-999,-99.99,,,-99.99,,2013-07-04 04:43:00,
2013-07-04 01:02:00,74.0,-99.9,30.14,ESE,105,6.0,9.0,-999,-99.99,,,-99.99,,2013-07-04 05:02:00,
2013-07-04 01:43:00,74.0,-99.9,30.11,East,92,3.0,7.0,-999,-99.99,,,-99.99,,2013-07-04 05:43:00,
2013-07-04 02:01:00,74.0,-99.9,30.11,East,88,4.0,6.0,-999,-99.99,,,-99.99,,2013-07-04 06:01:00,
2013-07-04 02:22:00,74.0,-99.9,30.11,East,101,4.0,8.0,-999,-99.99,,,-99.99,,2013-07-04 06:22:00,
2013-07-04 02:34:00,74.0,-99.9,30.11,East,98,5.0,9.0,-999,-99.99,,,-99.99,,2013-07-04 06:34:00,
2013-07-04 02:43:00,74.0,-99.9,30.11,East,101,5.0,11.0,-999,-99.99,,,-99.99,,2013-07-04 06:43:00,
2013-07-04 02:53:00,74.0,-99.9,30.11,East,90,5.0,9.0,-999,-99.99,,,-99.99,,2013-07-04 06:53:00,
2013-07-04 03:02:00,74.0,-99.9,30.10,ENE,78,4.0,8.0,-999,-99.99,,,-99.99,,2013-07-04 07:02:00,
2013-07-04 03:12:00,74.0,-99.9,30.09,East,85,3.0,7.0,-999,-99.99,,,-99.99,,2013-07-04 07:12:00,
2013-07-04 03:34:00,74.0,-99.9,30.09,East,96,4.0,8.0,-999,-99.99,,,-99.99,,2013-07-04 07:34:00,
2013-07-04 03:43:00,73.0,-99.9,30.08,East,85,4.0,6.0,-999,-99.99,,,-99.99,,2013-07-04 07:43:00,
2013-07-04 04:02:00,73.0,-99.9,30.08,East,83,5.0,9.0,-999,-99.99,,,-99.99,,2013-07-04 08:02:00,
2013-07-04 04:12:00,73.0,-99.9,30.08,ENE,77,4.0,8.0,-999,-99.99,,,-99.99,,2013-07-04 08:12:00,
2013-07-04 04:33:00,73.0,-99.9,30.08,East,80,6.0,10.0,-999,-99.99,,,-99.99,,2013-07-04 08:33:00,
2013-07-04 04:43:00,73.0,-99.9,30.08,East,83,5.0,10.0,-999,-99.99,,,-99.99,,2013-07-04 08:43:00,
2013-07-04 04:53:00,73.0,-99.9,30.08,East,80,3.0,7.0,-999,-99.99,,,-99.99,,2013-07-04 08:53:00,
2013-07-04 05:02:00,73.0,-99.9,30.08,ENE,72,5.0,8.0,-999,-99.99,,,-99.99,,2013-07-04 09:02:00,
2013-07-04 05:11:00,73.0,-99.9,30.08,ENE,72,5.0,8.0,-999,-99.99,,,-99.99,,2013-07-04 09:11:00,
2013-07-04 05:33:00,73.0,-99.9,30.08,ENE,73,5.0,7.0,-999,-99.99,,,-99.99,,2013-07-04 09:33:00,
2013-07-04 07:02:00,74.0,-99.9,30.09,East,79,4.0,7.0,-999,-99.99,,,-99.99,,2013-07-04 11:02:00,
2013-07-04 07:12:00,74.0,-99.9,30.09,East,79,3.0,6.0,-999,-99.99,,,-99.99,,2013-07-04 11:12:00,
2013-07-04 07:22:00,74.0,-99.9,30.10,ENE,74,6.0,10.0,-999,-99.99,,,-99.99,,2013-07-04 11:22:00,
2013-07-04 07:43:00,74.0,-99.9,30.10,ENE,73,5.0,11.0,-999,-99.99,,,-99.99,,2013-07-04 11:43:00,
2013-07-04 08:02:00,74.0,-99.9,30.11,ENE,76,5.0,10.0,-999,-99.99,,,-99.99,,2013-07-04 12:02:00,
2013-07-04 09:33:00,80.0,-99.9,30.13,SE,127,8.0,14.0,-999,-99.99,,,-99.99,,2013-07-04 13:33:00,
2013-07-04 09:43:00,81.0,-99.9,30.13,SE,126,11.0,15.0,-999,-99.99,,,-99.99,,2013-07-04 13:43:00,
2013-07-04 10:02:00,81.0,-99.9,30.13,ESE,122,10.0,16.0,-999,-99.99,,,-99.99,,2013-07-04 14:02:00,
2013-07-04 10:22:00,82.0,-99.9,30.13,SE,133,9.0,14.0,-999,-99.99,,,-99.99,,2013-07-04 14:22:00,
2013-07-04 10:33:00,82.0,-99.9,30.13,ESE,120,10.0,17.0,-999,-99.99,,,-99.99,,2013-07-04 14:33:00,
2013-07-04 10:43:00,83.0,-99.9,30.13,ESE,122,11.0,14.0,-999,-99.99,,,-99.99,,2013-07-04 14:43:00,
2013-07-04 10:53:00,83.0,-99.9,30.13,SE,135,11.0,18.0,-999,-99.99,,,-99.99,,2013-07-04 14:53:00,
2013-07-04 11:02:00,83.0,-99.9,30.14,SE,134,9.0,16.0,-999,-99.99,,,-99.99,,2013-07-04 15:02:00,
2013-07-04 11:11:00,84.0,-99.9,30.14,SE,131,9.0,17.0,-999,-99.99,,,-99.99,,2013-07-04 15:11:00,
2013-07-04 11:33:00,85.0,-99.9,30.13,SE,138,9.0,16.0,-999,-99.99,,,-99.99,,2013-07-04 15:33:00,
2013-07-04 11:43:00,85.0,-99.9,30.14,SE,133,14.0,19.0,-999,-99.99,,,-99.99,,2013-07-04 15:43:00,
2013-07-04 11:53:00,85.0,-99.9,30.14,SE,143,11.0,15.0,-999,-99.99,,,-99.99,,2013-07-04 15:53:00,
2013-07-04 12:02:00,85.0,-99.9,30.14,SE,142,12.0,19.0,-999,-99.99,,,-99.99,,2013-07-04 16:02:00,
2013-07-04 12:11:00,78.0,-99.9,30.14,South,169,16.0,20.0,-999,-99.99,,,-99.99,,2013-07-04 16:11:00,
2013-07-04 12:33:00,80.0,-99.9,30.14,SSE,164,10.0,14.0,-999,-99.99,,,-99.99,,2013-07-04 16:33:00,
2013-07-04 12:43:00,81.0,-99.9,30.14,SSE,162,7.0,12.0,-999,-99.99,,,-99.99,,2013-07-04 16:43:00,
2013-07-04 12:52:00,82.0,-99.9,30.14,SSE,161,8.0,12.0,-999,-99.99,,,-99.99,,2013-07-04 16:52:00,
2013-07-04 13:02:00,84.0,-99.9,30.14,SSE,148,9.0,13.0,-999,-99.99,,,-99.99,,2013-07-04 17:02:00,
2013-07-04 13:12:00,84.0,-99.9,30.13,South,171,12.0,15.0,-999,-99.99,,,-99.99,,2013-07-04 17:12:00,
2013-07-04 13:34:00,85.0,-99.9,30.12,South,175,10.0,14.0,-999,-99.99,,,-99.99,,2013-07-04 17:34:00,
2013-07-04 13:43:00,85.0,-99.9,30.12,South,172,10.0,16.0,-999,-99.99,,,-99.99,,2013-07-04 17:43:00,
2013-07-04 13:53:00,86.0,-99.9,30.12,South,171,7.0,17.0,-999,-99.99,,,-99.99,,2013-07-04 17:53:00,
2013-07-04 14:02:00,86.0,-99.9,30.12,SSE,158,11.0,18.0,-999,-99.99,,,-99.99,,2013-07-04 18:02:00,
2013-07-04 14:11:00,85.0,-99.9,30.11,South,172,15.0,21.0,-999,-99.99,,,-99.99,,2013-07-04 18:11:00,
2013-07-04 14:22:00,86.0,-99.9,30.11,SSE,161,11.0,18.0,-999,-99.99,,,-99.99,,2013-07-04 18:22:00,
2013-07-04 14:33:00,86.0,-99.9,30.11,SSE,165,11.0,15.0,-999,-99.99,,,-99.99,,2013-07-04 18:33:00,
2013-07-04 14:43:00,87.0,-99.9,30.11,South,169,10.0,15.0,-999,-99.99,,,-99.99,,2013-07-04 18:43:00,
2013-07-04 14:52:00,87.0,-99.9,30.11,SSE,162,9.0,15.0,-999,-99.99,,,-99.99,,2013-07-04 18:52:00,
2013-07-04 15:02:00,86.0,-99.9,30.10,South,174,10.0,14.0,-999,-99.99,,,-99.99,,2013-07-04 19:02:00,
2013-07-04 15:12:00,86.0,-99.9,30.10,South,173,6.0,17.0,-999,-99.99,,,-99.99,,2013-07-04 19:12:00,
2013-07-04 15:34:00,86.0,-99.9,30.10,South,170,15.0,19.0,-999,-99.99,,,-99.99,,2013-07-04 19:34:00,
2013-07-04 15:43:00,87.0,-99.9,30.10,SSE,157,10.0,14.0,-999,-99.99,,,-99.99,,2013-07-04 19:43:00,
2013-07-04 15:53:00,86.0,-99.9,30.10,SSE,168,13.0,19.0,-999,-99.99,,,-99.99,,2013-07-04 19:53:00,
2013-07-04 16:02:00,87.0,-99.9,30.09,SSE,167,9.0,15.0,-999,-99.99,,,-99.99,,2013-07-04 20:02:00,
2013-07-04 16:12:00,86.0,-99.9,30.09,South,189,2.0,6.0,-999,-99.99,,,-99.99,,2013-07-04 20:12:00,
2013-07-04 16:34:00,86.0,-99.9,30.08,South,175,4.0,7.0,-999,-99.99,,,-99.99,,2013-07-04 20:34:00,
2013-07-04 16:42:00,85.0,-99.9,30.08,SW,219,3.0,6.0,-999,-99.99,,,-99.99,,2013-07-04 20:42:00,
2013-07-04 16:53:00,85.0,-99.9,30.08,South,174,3.0,8.0,-999,-99.99,,,-99.99,,2013-07-04 20:53:00,
2013-07-04 17:02:00,85.0,-99.9,30.08,South,172,5.0,10.0,-999,-99.99,,,-99.99,,2013-07-04 21:02:00,
2013-07-04 17:53:00,84.0,-99.9,30.08,SE,128,6.0,9.0,-999,-99.99,,,-99.99,,2013-07-04 21:53:00,
2013-07-04 18:02:00,83.0,-99.9,30.08,WSW,252,1.0,5.0,-999,-99.99,,,-99.99,,2013-07-04 22:02:00,
2013-07-04 18:12:00,84.0,-99.9,30.09,South,169,6.0,8.0,-999,-99.99,,,-99.99,,2013-07-04 22:12:00,
2013-07-04 18:22:00,84.0,-99.9,30.09,SSE,166,8.0,13.0,-999,-99.99,,,-99.99,,2013-07-04 22:22:00,
2013-07-04 18:33:00,84.0,-99.9,30.09,SSE,164,11.0,12.0,-999,-99.99,,,-99.99,,2013-07-04 22:33:00,
2013-07-04 18:43:00,83.0,-99.9,30.09,SSE,162,9.0,13.0,-999,-99.99,,,-99.99,,2013-07-04 22:43:00,
2013-07-04 18:52:00,83.0,-99.9,30.09,ESE,115,4.0,9.0,-999,-99.99,,,-99.99,,2013-07-04 22:52:00,
2013-07-04 19:02:00,83.0,-99.9,30.10,SE,124,3.0,6.0,-999,-99.99,,,-99.99,,2013-07-04 23:02:00,
2013-07-04 19:12:00,83.0,-99.9,30.10,SE,143,4.0,8.0,-999,-99.99,,,-99.99,,2013-07-04 23:12:00,
2013-07-04 19:23:00,83.0,-99.9,30.10,SE,143,4.0,8.0,-999,-99.99,,,-99.99,,2013-07-04 23:23:00,
2013-07-04 19:43:00,83.0,-99.9,30.10,East,94,2.0,4.0,-999,-99.99,,,-99.99,,2013-07-04 23:43:00,
2013-07-04 20:01:00,82.0,-99.9,30.11,ENE,60,2.0,4.0,-999,-99.99,,,-99.99,,2013-07-05 00:01:00,
2013-07-04 20:12:00,82.0,-99.9,30.11,East,81,3.0,4.0,-999,-99.99,,,-99.99,,2013-07-05 00:12:00,
2013-07-04 20:22:00,82.0,-99.9,30.11,East,81,3.0,4.0,-999,-99.99,,,-99.99,,2013-07-05 00:22:00,
2013-07-04 20:32:00,82.0,-99.9,30.11,ENE,67,1.0,2.0,-999,-99.99,,,-99.99,,2013-07-05 00:32:00,
2013-07-04 20:43:00,82.0,-99.9,30.11,East,90,1.0,2.0,-999,-99.99,,,-99.99,,2013-07-05 00:43:00,
2013-07-04 20:52:00,82.0,-99.9,30.11,NE,54,2.0,4.0,-999,-99.99,,,-99.99,,2013-07-05 00:52:00,
2013-07-04 21:01:00,81.0,-99.9,30.11,NE,40,1.0,3.0,-999,-99.99,,,-99.99,,2013-07-05 01:01:00,
2013-07-04 21:11:00,81.0,-99.9,30.12,ENE,59,2.0,3.0,-999,-99.99,,,-99.99,,2013-07-05 01:11:00,
2013-07-04 21:22:00,81.0,-99.9,30.13,ENE,74,2.0,3.0,-999,-99.99,,,-99.99,,2013-07-05 01:22:00,
2013-07-04 21:32:00,81.0,-99.9,30.13,NE,56,2.0,3.0,-999,-99.99,,,-99.99,,2013-07-05 01:32:00,
2013-07-04 21:42:00,81.0,-99.9,30.14,ENE,70,2.0,3.0,-999,-99.99,,,-99.99,,2013-07-05 01:42:00,
2013-07-04 21:52:00,81.0,-99.9,30.14,NNE,21,2.0,4.0,-999,-99.99,,,-99.99,,2013-07-05 01:52:00,
2013-07-04 22:02:00,81.0,-99.9,30.14,NNE,28,3.0,5.0,-999,-99.99,,,-99.99,,2013-07-05 02:02:00,
2013-07-04 22:11:00,80.0,-99.9,30.14,NNE,24,3.0,5.0,-999,-99.99,,,-99.99,,2013-07-05 02:11:00,
2013-07-04 22:32:00,80.0,-99.9,30.15,NNE,29,5.0,6.0,-999,-99.99,,,-99.99,,2013-07-05 02:32:00,
2013-07-04 22:43:00,79.0,-99.9,30.16,NE,45,4.0,8.0,-999,-99.99,,,-99.99,,2013-07-05 02:43:00,
2013-07-04 22:53:00,79.0,-99.9,30.16,ENE,65,4.0,6.0,-999,-99.99,,,-99.99,,2013-07-05 02:53:00,
2013-07-04 23:02:00,79.0,-99.9,30.16,ENE,69,4.0,7.0,-999,-99.99,,,-99.99,,2013-07-05 03:02:00,
2013-07-04 23:11:00,79.0,-99.9,30.16,ENE,64,5.0,8.0,-999,-99.99,,,-99.99,,2013-07-05 03:11:00,
2013-07-04 23:33:00,79.0,-99.9,30.16,ENE,74,4.0,7.0,-999,-99.99,,,-99.99,,2013-07-05 03:33:00,
2013-07-04 23:42:00,78.0,-99.9,30.16,ENE,77,5.0,8.0,-999,-99.99,,,-99.99,,2013-07-05 03:42:00,
2013-07-04 23:52:00,78.0,-99.9,30.16,East,82,3.0,7.0,-999,-99.99,,,-99.99,,2013-07-05 03:52:00,